Retour au catalogue

DELTA 1 DEB

ActifSSO
NORAD 7071·DEBRIS·🇺🇸 United States

Lancé Nov 6, 1973 depuis Vandenberg Space Force Base

Loading…

Prochains Passages (prochaines 24 heures)

TLE

FraisSource: Space-Track

Époque: Sep 14, 2026, 22:05 UTC

1 07071U 73086BP  26257.92048498 -.00000026  00000-0  12046-3 0  9990
2 07071 101.6367 236.4298 0005977 289.1372  84.6863 12.41174700394250

Suivez DELTA 1 DEB en temps réel avec AllMySat

Download on the App Store